Résultats de la compétition " LD HESDIN 02/05/2010" du 02-05-2010 organisée par le club 6205
     
  Télécharger le fichier CSV.  
     
     

 Circuit "E"

Licence Nom Prénom Temps CN
précédent
Score sur
la course
Différence
16228VERCAUTERENAntoine0:38:3740074139+132
22925GROSSIKurtys0:39:34N/A4039N/A
20952LOUCHARTVictor0:51:5226433082+439
22417GERBEAUXMarie-jeanne0:57:2702782N/A
22447LALOUXClément0:57:3712932774+1481
22717BAILLIEULMartin0:58:00N/A2756N/A
9172POULAINGael0:58:1629972743-254
22860MASSINMargot1:00:21N/A2648N/A
22651ARROQUIPhilippe1:02:5102543N/A
14245RICHARDNicole1:04:3531132475-638
22236VANOVERBERGHEPhilippe1:06:38N/A2399N/A
23015LEICHTTheo1:06:51N/A2391N/A
18213LARGILLÈRENicolas1:08:4429852325-660
18661CUVILLIERSChristophe1:10:5215652255+690
22804CLAVELMatéo1:12:38N/A2200N/A
2888MOULIEREM-Bernadett1:15:4931522108-1044
22512GRESSIERTheo1:16:2717452091+346
15894LUDEWIG-JAMESCarol1:18:5321282026-102
21271DELANNOYAurore1:20:5213801976+596
23437GRESSIERFrancis1:26:11N/A1855N/A
21461PRINSSandrine1:41:1016081580-28
21118PROISYChristine1:43:1714761547+71
13635JUDASSylvaine1:44:51N/A1524N/A
23427BULLIERAlisson1:47:53N/A1481N/A
23489HERLEZRobin1:55:21N/A1386N/A
14164EJSMONTMartine2:04:5718311279-552
21117PROISYJean-christopheN/A15430-1543

  Indice de confiance du circuit (moyenne des différences entre CN et score sur la course des 3 à 10 premiers) : 294






 Retour